DW2715 Weather Reports


Display with metric or nautical units.
time (UTC)temp
F
wind
direction
speed
MPH
gust
MPH
rain 1hr
in
rain 24hr
in
rain mn
in
humidity
%
barometer
mb
20260902234736 73 57 0.0 3.0 0.00 0.00 0.00 73 1018.0
20260902232234 73 153 0.0 0.0 0.00 0.00 0.00 73 1018.0
20260902230732 73 163 0.0 0.0 0.00 0.00 0.00 74 1017.9
20260902230233 73 163 0.0 0.0 0.00 0.00 0.00 74 1017.9
20260902225731 73 163 0.0 0.0 0.00 0.00 0.00 74 1017.9
20260902225231 73 163 0.0 0.0 0.00 0.00 0.00 74 1017.9
20260902224731 73 167 0.0 0.0 0.00 0.00 0.00 74 1017.9
20260902224231 73 208 0.0 0.0 0.00 0.00 0.00 73 1017.9
20260902223731 73 208 0.0 0.0 0.00 0.00 0.00 73 1017.8
20260902223230 73 208 0.0 0.0 0.00 0.00 0.00 73 1017.8
20260902222730 74 208 0.0 0.0 0.00 0.00 0.00 73 1017.8
20260902222230 74 208 0.0 0.0 0.00 0.00 0.00 73 1017.8
20260902221731 74 208 0.0 0.0 0.00 0.00 0.00 72 1017.7
20260902221230 74 208 0.0 0.0 0.00 0.00 0.00 71 1017.7
20260902220732 74 208 0.0 0.0 0.00 0.00 0.00 71 1017.7
20260902220232 74 208 0.0 0.0 0.00 0.00 0.00 71 1017.6
20260902215732 74 208 0.0 0.0 0.00 0.00 0.00 71 1017.6
20260902215230 74 208 0.0 0.0 0.00 0.00 0.00 71 1017.6
20260902214726 74 208 0.0 0.0 0.00 0.00 0.00 71 1017.6
20260902214226 74 208 0.0 0.0 0.00 0.00 0.00 71 1017.5
20260902213726 74 208 0.0 0.0 0.00 0.00 0.00 71 1017.5
20260902213226 75 208 0.0 0.0 0.00 0.00 0.00 70 1017.5
20260902212725 75 208 0.0 0.0 0.00 0.00 0.00 69 1017.3
20260902212229 75 208 0.0 0.0 0.00 0.00 0.00 68 1017.3
20260902211726 75 208 0.0 0.0 0.00 0.00 0.00 68 1017.3
20260902211226 75 208 0.0 0.0 0.00 0.00 0.00 68 1017.3
20260902210726 75 208 0.0 0.0 0.00 0.00 0.00 68 1017.2
20260902210222 76 208 0.0 0.0 0.00 0.00 0.00 68 1017.2
20260902205722 76 208 0.0 0.0 0.00 0.00 0.00 68 1017.2
20260902205225 76 208 0.0 0.0 0.00 0.00 0.00 68 1017.2
20260902204725 76 208 0.0 0.0 0.00 0.00 0.00 67 1017.2
20260902204223 76 208 0.0 0.0 0.00 0.00 0.00 67 1017.2
20260902203223 76 208 0.0 0.0 0.00 0.00 0.00 67 1017.0
20260902202218 77 208 0.0 0.0 0.00 0.00 0.00 65 1016.9
20260902201715 77 208 0.0 0.0 0.00 0.00 0.00 65 1016.9
20260902201215 77 208 0.0 0.0 0.00 0.00 0.00 65 1017.0
20260902200709 77 208 0.0 2.0 0.00 0.00 0.00 65 1017.0
20260902200203 77 208 0.0 2.0 0.00 0.00 0.00 65 1017.0
20260902195704 77 205 0.0 3.0 0.00 0.00 0.00 65 1017.0
20260902195205 77 205 0.0 3.0 0.00 0.00 0.00 66 1017.0
20260902194703 77 187 0.0 0.0 0.00 0.00 0.00 66 1017.0
20260902194203 78 125 0.0 0.0 0.00 0.00 0.00 66 1016.9
20260902193202 78 109 0.0 0.0 0.00 0.00 0.00 67 1016.9
20260902192703 78 109 0.0 0.0 0.00 0.00 0.00 66 1016.8
20260902192203 78 109 0.0 0.0 0.00 0.00 0.00 66 1016.8
20260902191704 79 109 0.0 0.0 0.00 0.00 0.00 65 1016.8
20260902191203 79 109 0.0 0.0 0.00 0.00 0.00 65 1016.8
20260902190703 79 109 0.0 0.0 0.00 0.00 0.00 65 1016.7
20260902190202 79 109 0.0 0.0 0.00 0.00 0.00 64 1016.7
20260902185702 79 109 0.0 0.0 0.00 0.00 0.00 64 1016.6
20260902184703 80 109 0.0 0.0 0.00 0.00 0.00 63 1016.5
20260902183703 80 109 0.0 0.0 0.00 0.00 0.00 62 1016.4
20260902183157 80 109 0.0 0.0 0.00 0.00 0.00 61 1016.3
20260902182651 80 109 0.0 0.0 0.00 0.00 0.00 61 1016.3
20260902181648 81 108 0.0 2.0 0.00 0.00 0.00 60 1016.2
20260902180644 81 108 0.0 0.0 0.00 0.00 0.00 59 1016.1
20260902175143 83 110 0.0 3.0 0.00 0.00 0.00 57 1015.8
20260902174642 83 126 0.0 0.0 0.00 0.00 0.00 55 1015.8
20260902174138 84 128 0.0 0.0 0.00 0.00 0.00 53 1015.8
20260902173635 85 126 0.0 0.0 0.00 0.00 0.00 52 1015.7
20260902173133 86 113 0.0 3.0 0.00 0.00 0.00 51 1015.8
20260902172631 87 131 0.0 3.0 0.00 0.00 0.00 49 1015.7
20260902172131 87 145 0.0 3.0 0.00 0.00 0.00 48 1015.8
20260902171130 88 140 0.0 0.0 0.00 0.00 0.00 47 1015.7
20260902170631 89 140 0.0 3.0 0.00 0.00 0.00 47 1015.7
20260902170133 89 139 0.0 3.0 0.00 0.00 0.00 45 1015.8
20260902165632 90 163 0.0 0.0 0.00 0.00 0.00 45 1015.8
20260902165130 90 192 0.0 4.0 0.00 0.00 0.00 43 1015.8
20260902164631 91 222 0.0 4.0 0.00 0.00 0.00 40 1015.8
20260902164130 91 203 0.0 5.0 0.00 0.00 0.00 40 1015.7
20260902163631 91 240 0.0 5.0 0.00 0.00 0.00 39 1015.7
20260902162631 91 200 0.0 3.0 0.00 0.00 0.00 39 1015.7
20260902162130 91 195 0.0 3.0 0.00 0.00 0.00 39 1015.7
20260902161632 91 199 0.0 0.0 0.00 0.00 0.00 40 1015.8
20260902161130 91 198 0.0 0.0 0.00 0.00 0.00 39 1015.8
20260902160131 91 227 0.0 0.0 0.00 0.00 0.00 39 1015.7
20260902155131 91 191 0.0 0.0 0.00 0.00 0.00 39 1015.7
20260902154630 91 136 0.0 0.0 0.00 0.00 0.00 40 1015.8
20260902154130 90 204 0.0 0.0 0.00 0.00 0.00 41 1015.8
20260902153630 90 216 0.0 0.0 0.00 0.00 0.00 40 1015.8
20260902153130 90 254 0.0 0.0 0.00 0.00 0.00 41 1015.8
20260902152631 89 254 0.0 2.0 0.00 0.00 0.00 41 1015.9
20260902152127 89 202 0.0 3.0 0.00 0.00 0.00 42 1015.9
20260902151622 89 296 0.0 3.0 0.00 0.00 0.00 41 1015.9
20260902151114 89 271 0.0 1.0 0.00 0.00 0.00 41 1016.1
20260902150612 90 270 1.0 4.0 0.00 0.00 0.00 40 1016.2
20260902145611 91 211 1.0 5.0 0.00 0.00 0.00 40 1016.3
20260902144111 91 221 1.0 5.0 0.00 0.00 0.00 39 1016.4
20260902143611 92 186 0.0 8.0 0.00 0.00 0.00 39 1016.4
20260902143111 91 209 1.0 8.0 0.00 0.00 0.00 38 1016.4
20260902142611 92 243 1.0 7.0 0.00 0.00 0.00 38 1016.5
20260902142111 92 190 1.0 6.0 0.00 0.00 0.00 40 1016.6
20260902141611 91 169 1.0 6.0 0.00 0.00 0.00 39 1016.6
20260902141111 90 182 1.0 5.0 0.00 0.00 0.00 41 1016.7
20260902140607 90 205 0.0 4.0 0.00 0.00 0.00 42 1016.7
20260902140106 89 195 0.0 4.0 0.00 0.00 0.00 42 1016.8
20260902135607 90 197 0.0 3.0 0.00 0.00 0.00 40 1016.8
20260902135107 90 236 0.0 6.0 0.00 0.00 0.00 39 1016.8
20260902134607 91 194 0.0 6.0 0.00 0.00 0.00 41 1016.8
20260902133607 90 233 0.0 2.0 0.00 0.00 0.00 40 1016.8
20260902133107 89 233 0.0 4.0 0.00 0.00 0.00 40 1016.9
20260902132103 89 236 0.0 3.0 0.00 0.00 0.00 41 1017.1
20260902131603 88 248 0.0 2.0 0.00 0.00 0.00 40 1017.1
20260902131104 89 238 1.0 6.0 0.00 0.00 0.00 40 1017.1
20260902130606 90 242 0.0 6.0 0.00 0.00 0.00 39 1017.0
20260902130103 90 212 0.0 1.0 0.00 0.00 0.00 40 1017.1
20260902125602 89 194 0.0 0.0 0.00 0.00 0.00 39 1017.1
20260902125104 89 232 0.0 0.0 0.00 0.00 0.00 41 1017.1
20260902124602 89 242 0.0 7.0 0.00 0.00 0.00 39 1017.2
20260902124103 89 254 0.0 7.0 0.00 0.00 0.00 39 1017.3
20260902123601 89 283 0.0 1.0 0.00 0.00 0.00 39 1017.5
20260902123105 89 205 0.0 3.0 0.00 0.00 0.00 42 1017.5
20260902122602 89 168 1.0 4.0 0.00 0.00 0.00 40 1017.6
20260902122103 89 165 1.0 4.0 0.00 0.00 0.00 42 1017.6
20260902121601 89 204 0.0 4.0 0.00 0.00 0.00 41 1017.6
20260902121104 89 209 0.0 4.0 0.00 0.00 0.00 41 1017.6
20260902120602 88 219 0.0 1.0 0.00 0.00 0.00 43 1017.7
20260902115603 87 155 0.0 4.0 0.00 0.00 0.00 42 1017.8
20260902115105 87 80 0.0 4.0 0.00 0.00 0.00 42 1017.8
20260902114603 87 153 0.0 3.0 0.00 0.00 0.00 43 1017.9
20260902113605 86 122 1.0 6.0 0.00 0.00 0.00 43 1018.0
20260902113103 86 104 0.0 6.0 0.00 0.00 0.00 44 1018.0
20260902112602 85 155 0.0 2.0 0.00 0.00 0.00 45 1018.0
20260902112103 85 91 0.0 6.0 0.00 0.00 0.00 44 1018.1
20260902111602 85 147 0.0 6.0 0.00 0.00 0.00 44 1018.1
20260902111103 86 75 0.0 2.0 0.00 0.00 0.00 45 1018.2
20260902110602 85 189 0.0 2.0 0.00 0.00 0.00 44 1018.2
20260902105602 85 242 0.0 5.0 0.00 0.00 0.00 45 1018.4
20260902105104 84 127 0.0 6.0 0.00 0.00 0.00 45 1018.5
20260902104602 84 84 0.0 6.0 0.00 0.00 0.00 46 1018.5
20260902104102 83 144 0.0 0.0 0.00 0.00 0.00 46 1018.6
20260902103603 83 319 0.0 0.0 0.00 0.00 0.00 46 1018.7
20260902103104 84 341 0.0 0.0 0.00 0.00 0.00 46 1018.7
20260902102602 84 40 0.0 0.0 0.00 0.00 0.00 46 1018.8
20260902102103 84 338 0.0 6.0 0.00 0.00 0.00 45 1018.7
20260902101603 84 181 0.0 6.0 0.00 0.00 0.00 47 1018.8
20260902101102 83 121 0.0 3.0 0.00 0.00 0.00 47 1018.8
20260902100602 83 245 0.0 3.0 0.00 0.00 0.00 47 1018.8
20260902095603 82 37 0.0 4.0 0.00 0.00 0.00 47 1018.8
20260902095104 82 339 0.0 5.0 0.00 0.00 0.00 48 1019.0
20260902094602 82 338 0.0 5.0 0.00 0.00 0.00 48 1019.1
20260902094103 82 113 0.0 4.0 0.00 0.00 0.00 48 1019.0
20260902093602 82 35 0.0 4.0 0.00 0.00 0.00 48 1019.0
20260902093103 82 53 0.0 3.0 0.00 0.00 0.00 49 1019.0
20260902092602 82 9 0.0 0.0 0.00 0.00 0.00 49 1019.1
20260902092102 81 5 0.0 0.0 0.00 0.00 0.00 51 1019.0
20260902091605 81 5 0.0 0.0 0.00 0.00 0.00 50 1019.1
20260902090602 81 96 0.0 4.0 0.00 0.00 0.00 52 1019.1
20260902085603 81 42 0.0 3.0 0.00 0.00 0.00 52 1019.2
20260902085103 80 5 0.0 2.0 0.00 0.00 0.00 54 1019.2
20260902084602 80 11 0.0 4.0 0.00 0.00 0.00 53 1019.1
20260902083603 80 61 0.0 6.0 0.00 0.00 0.00 53 1019.0
20260902083102 79 5 1.0 8.0 0.00 0.00 0.00 54 1019.0
20260902082603 79 49 1.0 8.0 0.00 0.00 0.00 55 1018.9
20260902082102 79 79 0.0 5.0 0.00 0.00 0.00 54 1019.0
20260902081102 79 12 0.0 0.0 0.00 0.00 0.00 55 1018.9
20260902080602 78 69 0.0 3.0 0.00 0.00 0.00 56 1018.9
20260902075600 78 55 0.0 7.0 0.00 0.00 0.00 56 1018.8
20260902075100 78 25 0.0 7.0 0.00 0.00 0.00 56 1018.8
20260902074600 78 32 0.0 5.0 0.00 0.00 0.00 56 1018.8
20260902074100 78 18 0.0 3.0 0.00 0.00 0.00 57 1018.7
20260902073600 77 26 0.0 5.0 0.00 0.00 0.00 58 1018.7
20260902073101 77 88 1.0 5.0 0.00 0.00 0.00 58 1018.7
20260902072600 77 42 1.0 6.0 0.00 0.00 0.00 58 1018.7
20260902072101 76 25 1.0 6.0 0.00 0.00 0.00 58 1018.6
20260902071100 76 5 1.0 5.0 0.00 0.00 0.00 60 1018.6
20260902070600 76 355 1.0 7.0 0.00 0.00 0.00 59 1018.6
20260902070101 75 44 0.0 7.0 0.00 0.00 0.00 60 1018.6
20260902065600 75 338 0.0 0.0 0.00 0.00 0.00 63 1018.6
20260902065104 74 330 0.0 0.0 0.00 0.00 0.00 65 1018.6
20260902064600 74 0 0.0 0.0 0.00 0.00 0.00 65 1018.6
20260902064100 74 311 0.0 0.0 0.00 0.00 0.00 68 1018.5
20260902063600 73 300 0.0 0.0 0.00 0.00 0.00 69 1018.5
20260902062600 72 308 0.0 2.0 0.00 0.00 0.00 70 1018.5
20260902062100 72 311 0.0 2.0 0.00 0.00 0.00 71 1018.5
20260902061602 72 306 0.0 4.0 0.00 0.00 0.00 72 1018.5
20260902060556 71 355 0.0 3.0 0.00 0.00 0.00 73 1018.3
20260902060056 70 321 0.0 3.0 0.00 0.00 0.00 74 1018.3
20260902055558 70 322 0.0 2.0 0.00 0.00 0.00 75 1018.3
20260902055056 70 321 0.0 0.0 0.00 0.00 0.00 76 1018.3
20260902054556 69 321 0.0 0.0 0.00 0.00 0.00 76 1018.3
20260902054056 69 321 0.0 0.0 0.00 0.00 0.00 76 1018.2
20260902053553 69 321 0.0 0.0 0.00 0.00 0.00 76 1018.2
20260902053053 69 322 0.0 0.0 0.00 0.00 0.00 76 1018.2
20260902052047 69 322 0.0 0.0 0.00 0.00 0.00 77 1018.1
20260902051043 68 322 0.0 0.0 0.00 0.00 0.00 77 1018.0
20260902050541 68 322 0.0 0.0 0.00 0.00 0.00 78 1018.0
20260902050040 68 322 0.0 0.0 0.00 0.00 0.00 77 1018.1
20260902045540 68 322 0.0 0.0 0.00 0.00 0.00 78 1018.1
20260902045039 68 322 0.0 0.0 0.00 0.00 0.00 78 1018.0
20260902044538 68 322 0.0 0.0 0.00 0.00 0.00 77 1018.1
20260902044036 68 322 0.0 0.0 0.00 0.00 0.00 77 1018.1
20260902043036 68 322 0.0 0.0 0.00 0.00 0.00 76 1018.1
20260902042031 69 322 0.0 0.0 0.00 0.00 0.00 76 1018.1
20260902041531 69 322 0.0 0.0 0.00 0.00 0.00 75 1018.1
20260902040531 69 322 0.0 0.0 0.00 0.00 0.00 74 1018.1
20260902035531 70 322 0.0 0.0 0.00 0.00 0.00 73 1018.0
20260902035031 69 322 0.0 0.0 0.00 0.00 0.00 73 1018.0
20260902034527 70 322 0.0 0.0 0.00 0.00 0.00 73 1018.0
20260902034021 70 322 0.0 0.0 0.00 0.00 0.00 73 1017.9
20260902033008 69 322 0.0 0.0 0.00 0.00 0.00 73 1017.9
20260902032503 69 322 0.0 0.0 0.00 0.00 0.00 73 1017.9
20260902031502 70 322 0.0 0.0 0.00 0.00 0.00 74 1017.9
20260902031003 70 322 0.0 0.0 0.00 0.00 0.00 74 1017.9
20260902030503 70 322 0.0 0.0 0.00 0.00 0.00 74 1017.9
20260902030006 70 322 0.0 0.0 0.00 0.00 0.00 74 1017.8
20260902025503 70 321 0.0 0.0 0.00 0.00 0.00 74 1017.8
20260902025002 70 321 0.0 0.0 0.00 0.00 0.00 74 1017.8
20260902024502 70 321 0.0 0.0 0.00 0.00 0.00 74 1017.8
20260902023503 70 321 0.0 0.0 0.00 0.00 0.00 74 1017.9
20260902023002 70 321 0.0 0.0 0.00 0.00 0.00 74 1017.9
20260902022502 70 321 0.0 0.0 0.00 0.00 0.00 74 1017.9
20260902022004 70 321 0.0 0.0 0.00 0.00 0.00 73 1017.9
20260902021503 70 321 0.0 0.0 0.00 0.00 0.00 73 1017.9
20260902020502 70 321 0.0 0.0 0.00 0.00 0.00 73 1017.9
20260902020002 70 321 0.0 0.0 0.00 0.00 0.00 73 1017.9
20260902015457 70 321 0.0 0.0 0.00 0.00 0.00 73 1017.9
20260902014951 71 321 0.0 0.0 0.00 0.00 0.00 73 1017.9
20260902013939 71 321 0.0 0.0 0.00 0.00 0.00 73 1017.9
20260902013439 70 321 0.0 0.0 0.00 0.00 0.00 73 1017.9
20260902012937 70 321 0.0 0.0 0.00 0.00 0.00 73 1017.8
20260902012436 70 321 0.0 0.0 0.00 0.00 0.00 73 1017.8
20260902011934 71 321 0.0 0.0 0.00 0.00 0.00 73 1017.8
20260902011431 71 321 0.0 0.0 0.00 0.00 0.00 73 1017.8
20260902010934 71 321 0.0 0.0 0.00 0.00 0.00 73 1017.9
20260902010431 71 325 0.0 0.0 0.00 0.00 0.00 73 1017.9
20260902005931 71 329 0.0 0.0 0.00 0.00 0.00 72 1017.9
20260902004930 71 329 0.0 0.0 0.00 0.00 0.00 72 1018.0
20260902004428 71 329 0.0 0.0 0.00 0.00 0.00 72 1018.0
20260902003928 71 329 0.0 0.0 0.00 0.00 0.00 71 1018.0
20260902003428 71 329 0.0 0.0 0.00 0.00 0.00 71 1018.0
20260902002925 71 329 0.0 0.0 0.00 0.00 0.00 71 1018.0
20260902002425 72 329 0.0 0.0 0.00 0.00 0.00 70 1018.0
20260902001926 72 329 0.0 0.0 0.00 0.00 0.00 70 1018.0
20260902001425 72 329 0.0 0.0 0.00 0.00 0.00 70 1018.1
20260902000422 72 329 0.0 2.0 0.00 0.00 0.00 69 1018.0
20260901235921 72 329 0.0 2.0 0.00 0.00 0.00 69 1018.1
20260901235419 72 329 0.0 0.0 0.00 0.00 0.00 69 1018.0